Location: Heilwood
(40.6210°N, 78.9150°W)
Time: 04:08:33
(UTC-04:00)

Daily predictions for brighter satellites

Satellite Brightness Start Highest point End
(mag) Time Altitude Azimuth Time Altitude Azimuth Time Altitude Azimuth
CZ-2D R/B 4.3 03:09:53 10° NNE 03:11:58 22° NE 03:11:58 22° NE
Cosmos 1980 Rocket 4.3 03:19:15 22° NNE 03:19:15 22° NNE 03:21:13 10° NNE
Resurs 1-4 Rocket 4.4 03:14:47 10° NNE 03:16:34 21° NE 03:16:34 21° NE
FALCON 9 R/B 4.2 03:31:24 68° S 03:31:33 68° S 04:06:19 10° ESE
Cosmos 2263 Rocket 4.1 03:28:04 10° N 03:31:06 25° NNE 03:31:06 25° NNE
Cosmos 2315 Rocket 4.4 04:10:00 59° N 04:10:00 59° N 04:14:58 10° N
SL-16 R/B 4.1 04:16:19 23° NNW 04:16:19 23° NNW 04:18:35 10° NNW
Lacrosse 4 Rocket 4.2 04:09:46 10° N 04:12:31 17° NE 04:15:18 10° E
Cosmos 2322 Rocket 2.9 04:28:06 45° N 04:28:06 45° N 04:32:11 10° NNE
CENTAUR R/B 3.2 04:30:06 41° NW 04:30:06 41° NW 04:36:15 10° NNE
SL-16 R/B 2.8 04:31:52 46° NNW 04:31:52 46° NNW 04:36:10 10° NNE
ADEOS Rocket 3.5 04:25:22 10° N 04:29:19 43° NNW 04:29:19 43° NNW
USA 215 3.5 04:24:23 10° ESE 04:30:52 65° NE 04:37:21 10° NW
COSMOS 2428 4.4 04:32:15 18° SE 04:35:13 27° ESE 04:39:57 10° NE
Cosmos 2074 Rocket 4.1 04:36:27 10° N 04:42:44 73° E 04:47:30 18° SSE
ARIANE 5 R/B 4.2 04:41:54 10° N 04:44:11 22° NNW 04:44:11 22° NNW
ISS -0.8 04:51:36 12° ESE 04:51:36 12° ESE 04:51:55 10° ESE
CZ-2D R/B 3.6 04:50:18 10° N 04:53:19 24° NW 04:53:19 24° NW
Cosmos 1544 Rocket 3.8 04:53:13 10° N 04:57:05 66° N 04:57:05 66° N
Cosmos 2360 Rocket 2.0 04:57:54 68° SW 04:58:38 84° WNW 05:04:19 10° NNE
Resurs 1-4 Rocket 3.7 04:55:13 10° NNW 04:57:39 20° NW 04:57:39 20° NW
Cosmos 1980 Rocket 4.2 05:01:00 14° NW 05:01:00 14° NW 05:03:18 10° NNW
CZ-4B R/B 3.2 04:59:23 10° NNE 05:02:24 54° NE 05:02:24 54° NE
Cosmos 1812 4.3 05:04:57 26° NNW 05:04:57 26° NNW 05:06:50 10° N
Okean O Rocket 1.6 05:04:34 10° NNE 05:09:02 84° E 05:09:49 60° S
PAYLOAD B 4.3 05:08:52 10° NNE 05:14:31 82° ESE 05:18:06 23° S
Cosmos 2263 Rocket 4.1 05:11:52 10° NW 05:12:41 14° NW 05:12:41 14° NW
Cosmos 2184 Rocket 3.9 05:10:52 10° NNW 05:16:59 63° W 05:22:49 12° S
Cosmos 1340 2.8 05:18:04 62° NNW 05:18:04 62° NNW 05:21:23 10° N
Meteor 1-12 Rocket 4.1 05:13:43 10° NNW 05:19:21 73° W 05:25:02 10° S
DELTA 2 R/B (1) 3.8 05:20:34 41° SSW 05:22:09 56° SSE 05:27:35 10° E
Cosmos 1777 Rocket 4.0 05:17:12 10° NNW 05:22:24 57° WSW 05:27:33 10° S
ATLAS 5 CENTAUR R/B 4.3 05:18:02 10° NNW 05:23:05 28° NE 05:28:30 10° E
Cosmos 2333 Rocket 3.9 05:18:28 10° SSE 05:23:22 31° ESE 05:28:19 10° NE
Meteor 1-18 Rocket 4.3 05:22:10 43° WSW 05:23:32 54° WNW 05:29:01 10° N
Cosmos 1743 3.3 05:23:32 10° N 05:27:22 58° E 05:31:09 10° SSE
ADEOS II 2.0 05:22:06 10° N 05:27:23 82° WNW 05:30:52 22° SSW
Meteor 1-31 Rocket 4.4 05:24:44 10° NNE 05:28:13 34° E 05:31:41 10° SSE
Cosmos 1455 Rocket 3.2 05:27:22 10° NNW 05:31:36 48° W 05:32:07 45° WSW
Cosmos 2322 3.9 05:29:55 37° WSW 05:31:51 53° WNW 05:37:27 10° NNE
Lacrosse 5 3.6 05:34:52 17° SSW 05:34:52 17° SSW 05:36:21 10° S
MOS 1 Rocket 3.9 05:28:44 10° N 05:33:03 35° WNW 05:33:13 35° WNW
EO 1 Del DPAF 3.2 05:34:09 30° SSW 05:35:52 58° W 05:39:41 10° NNW
SAR-Lupe-3 4.3 05:33:39 10° SSE 05:37:06 88° WSW 05:40:39 10° NNW
Meteor 1-13 Rocket 4.2 05:34:06 10° S 05:39:36 86° E 05:45:14 10° N
Okean 1 4.1 05:40:05 33° WNW 05:40:05 33° WNW 05:43:35 10° N
USA 116 4.3 05:40:36 10° SSE 05:44:40 68° ENE 05:49:18 10° N
Cosmos 1238 Rocket 1.9 05:46:13 42° SSW 05:47:03 70° W 05:50:00 10° N
Cosmos 2154 Rocket 3.9 05:44:30 10° NNW 05:50:38 65° W 05:56:45 10° S
Cosmos 1975 3.7 05:47:17 10° NNW 05:50:38 29° W 05:50:38 29° W
Cosmos 2333 4.1 05:46:11 15° SSW 05:50:53 80° WNW 05:56:37 10° NNE
Lacrosse 4 Rocket 1.5 05:47:25 10° NW 05:51:30 50° WSW 05:55:38 10° S
Cosmos 1844 4.0 05:47:36 10° NNW 05:53:22 70° ENE 05:59:03 10° SSE
CZ-4B DEB 4.5 05:50:33 10° N 05:55:54 49° WNW 06:00:33 13° SW
Cosmos 1536 Rocket 4.3 05:54:41 26° WSW 05:56:16 33° WNW 06:00:21 10° N
Cosmos 2208 Rocket 4.2 05:53:05 17° SW 05:57:11 57° WNW 06:02:35 10° N
Aureole 2 Rocket 4.5 05:54:52 10° SSE 05:58:12 30° ESE 06:01:17 10° NE
CZ-4B R/B 3.6 05:54:50 10° N 06:00:11 45° WNW 06:04:58 12° SW
Tiangong 2 0.9 05:59:14 29° WNW 06:00:40 89° SSW 06:03:49 10° ESE
Meteor PRIRODA 3.7 05:57:48 10° N 06:01:32 61° WNW 06:05:14 10° SSW
Cosmos 1867 4.5 05:59:50 10° NNW 06:05:10 51° NE 06:10:27 10° SE
Okean 1-7 Rocket 3.5 06:03:28 10° SSW 06:08:00 77° W 06:12:31 10° N
Cosmos 2181 Rocket 3.9 06:04:04 10° SSW 06:10:13 73° W 06:16:32 10° N
Cosmos 2322 Rocket 4.3 06:11:28 10° NW 06:11:54 10° NW 06:12:20 10° NW
Gblst 52 Del rocket 4.4 06:07:11 10° WNW 06:12:57 70° SW 06:19:29 10° SE
Cosmos 1980 4.1 06:07:47 10° S 06:13:21 66° ESE 06:18:58 10° NNE
USA 215 3.8 06:08:08 10° SSE 06:14:04 36° SW 06:20:03 10° WNW
SL-8 Rocket 4.0 06:08:23 10° N 06:14:38 88° ENE 06:20:49 10° S
Meteor 1-23 Rocket 4.3 06:12:11 10° S 06:17:59 87° W 06:23:49 10° N
COSMOS 2428 3.2 06:14:19 12° SW 06:19:15 42° WNW 06:24:38 10° N
ERS-2 2.6 06:17:09 10° N 06:20:39 40° WNW 06:24:06 10° SW
Radarsat Rocket 4.4 06:16:28 10° NNE 06:22:26 67° ESE 06:28:12 10° S
Thor Agena Rocket 3.4 06:17:48 10° S 06:22:52 74° WSW 06:27:55 10° NNW
USA 229 DEB 3.7 06:17:24 10° SW 06:24:15 81° NW 06:31:15 10° NNE
USA 229 3.7 06:17:31 10° SW 06:24:21 82° NW 06:31:21 10° NNE
ISS -1.8 06:24:19 13° WSW 06:24:44 13° SW 06:26:23 10° SSW
Cosmos 2219 Rocket 2.2 06:20:27 10° SW 06:25:58 63° WNW 06:31:32 10° NNE
Meteor 2-9 Rocket 4.2 06:21:16 10° NNW 06:26:55 66° W 06:32:22 10° S
Okean 2 3.4 06:23:51 10° S 06:27:59 82° W 06:32:12 10° N
Cosmos 2341 Rocket 4.3 06:22:17 10° NNW 06:28:09 44° W 06:33:58 10° SSW
Cosmos 1606 Rocket 3.6 06:24:08 10° N 06:28:38 89° E 06:33:06 10° S
Cosmos 2150 Rocket 4.1 06:24:58 10° NNW 06:30:16 88° WSW 06:35:38 10° SSE
Cosmos 1844 Rocket 3.1 06:30:06 10° NW 06:35:15 39° WSW 06:40:22 10° S
Meteor 1-15 Rocket 4.3 06:31:13 10° NNW 06:37:08 75° W 06:43:02 10° S
Cosmos 2218 Rocket 4.0 06:31:19 10° N 06:37:41 74° W 06:43:59 10° S
Meteor 1-28 Rocket 3.4 06:34:27 10° SSE 06:38:15 80° ENE 06:42:04 10° N
NOSS 3-1 (C) 4.1 06:34:55 10° SSW 06:40:29 56° ESE 06:46:41 10° NE
Cosmos 990 Rocket 4.0 06:36:36 10° NNW 06:41:49 89° ENE 06:46:58 10° SSE
Cosmos 1898 Rocket 3.6 06:37:03 10° NNW 06:42:05 52° WSW 06:47:05 10° S
Cosmos 2360 Rocket 4.0 06:40:38 10° WNW 06:43:32 14° NW 06:46:27 10° NNW
CZ-4 R/B 4.4 06:41:31 10° NE 06:44:28 20° E 06:47:22 10° SE
Cosmos 468 Rocket 4.3 06:39:49 10° SW 06:44:49 49° WNW 06:49:53 10° N
Cosmos 2278 Rocket 2.2 06:40:04 10° NNW 06:45:45 80° WSW 06:51:24 10° SSE
